Find Starlink 32789

NORAD ID: 62529 Int'l Des: 2025-004 Owner: SPXS Country: US Constellation: starlink operational
LEOCIRCULAR

当前视图

正在加载3D地球...

About Starlink 32789

Starlink 32789 (NORAD 62529) is a starlink constellation satellite (v2 mini) launched Jan 8, 2025 by SPXS of US. It operates in LEO, CIRCULAR orbit with a mass of 730.00 kg.

关于 Starlink 32789

正在加载描述...

即将过境

Passes for default location (London). Set your location on the main map for personalized predictions.

高度历史

Loading altitude history...

两行轨道根数

1 62529U 25004U 26170.60302112 .00018364 00000-0 67493-3 0 9990
2 62529 43.0044 4.4282 0002148 283.4298 76.6315 15.27592216 82044
Epoch: Jun 19, 2026 • Age: 18 hours

当前状态

高度 483.4 km
速度 7.63 km/s
星下点 -2.18°S, 145.95°E
发射日期 Jan 8, 2025
运行时间 1.4 years
类型 internet

技术详情

分类 Payload
质量 730.00 kg
干质量 700.00 kg
总质量 730.00 kg
长度 0.30 m
直径 4.10 m
跨度 29.00 m
形状 Box + pan
制造商 SPXS
平台类型 Starlink V2M
阶段状态 In Orbit
所有者/国家 SPXS/US

Most Searched